Regional Weather Roundup
Issued by NWS

Home | Current Version | Previous Version | Graphics & Text | Print | Product List | Glossary On
Versions: 1 2 3 4 5 6 7 8 9 10 11 12 13 14 15 16 17 18 19 20 21 22 23 24 25 26 27 28 29 30 31 32 33 34 35 36 37 38 39 40 41 42 43 44 45 46 47 48 49 50
000
ASUS43 KTOP 292008
RWRKS

WEATHER ROUNDUP FOR KANSAS
NATIONAL WEATHER SERVICE GOODLAND KS
300 PM CDT THU SEP 29 2016

NOTE:  "FAIR" INDICATES FEW OR NO CLOUDS BELOW 12,000 FEET WITH NO
SIGNIFICANT WEATHER AND/OR OBSTRUCTIONS TO VISIBILITY.

KSZ001>006-013>018-027>032-041>047-292100-
NORTHWEST KANSAS

CITY           SKY/WX    TMP DP  RH WIND       PRES   REMARKS
GOODLAND       SUNNY     74  42  31 S16G24    30.34F
HAYS           SUNNY     70  41  35 E6        30.37F
HILL CITY      SUNNY     70  44  39 MISG      30.37F
RUSSELL        SUNNY     69  48  47 E8        30.36F
$$

KSZ061>065-074>080-084>089-292100-
SOUTHWEST KANSAS

CITY           SKY/WX    TMP DP  RH WIND       PRES   REMARKS
DODGE CITY     SUNNY     73  37  27 E8        30.37F
ELKHART          N/A     75  45  34 SE13        N/A
GARDEN CITY    SUNNY     73  40  30 E9        30.35F
GREAT BEND     SUNNY     68  45  42 NE6       30.36F
LIBERAL        SUNNY     73  43  33 S8        30.37F
PRATT          SUNNY     67  42  40 NE7       30.36F
$$

KSZ066>073-081>083-090>101-292100-
SOUTHEAST KANSAS

CITY           SKY/WX    TMP DP  RH WIND       PRES   REMARKS
CHANUTE        SUNNY     72  49  44 N8        30.31F
COFFEYVILLE    SUNNY     72  49  44 N10       30.30F
HUTCHINSON     SUNNY     69  47  45 NE8       30.36F
MEDICINE LODGE   N/A     70  48  45 N7        30.35F
NEWTON         MOSUNNY   67  49  52 VRB7G16   30.36F
PARSONS        SUNNY     73  49  42 N9G17     30.31F
WICHITA INTL   MOSUNNY   71  49  45 NW8       30.35F
WICHITA JABRA  MOSUNNY   69  50  50 N9        30.34F
WICHITA MCCONL SUNNY     70  48  46 N9        30.34F
WINFIELD       SUNNY     71  50  47 N8        30.34F
$$

KSZ007>012-019>026-033>040-048>060-102>105-292100-
NORTHEAST KANSAS

CITY           SKY/WX    TMP DP  RH WIND       PRES   REMARKS
CONCORDIA      SUNNY     68  47  46 CALM      30.37F
EMPORIA        SUNNY     69  49  48 N10       30.34F
LAWRENCE       SUNNY     71  49  45 NW10      30.33F
MANHATTAN      MOSUNNY   69  49  48 N8        30.35F
MARYSVILLE     SUNNY     70  48  46 E3        30.36F
OLATHE IND     SUNNY     71  49  45 N12       30.33F
OLATHE EXE     SUNNY     69  45  41 N10       30.32F
SALINA         SUNNY     71  49  45 MISG      30.37F
TOPEKA BILLARD MOSUNNY   70  51  51 N12G18    30.34F
TOPEKA FORBES  MOSUNNY   72  51  47 N8        30.34F
$$



USA.gov is the U.S. government's official web portal to all federal, state and local government web resources and services.